STARLINK-34070 (63913 NORAD) Tracking and Keplerian Element Data

This shows tracking and keplerian element data for the satellite.

Feedback or suggestion? Click here.




ElementValue
Catalog63913
NameSTARLINK-34070
Epoch Orbit3561
Epoch Day354.15080338
Epoch Year2025
RAAN265.3873
Inclination43.0023
Eccentricity0.0001703
Argument of Perigee275.2698
Mean Anonmoly84.7959
Mean Motion15.27580388
Decay Rate0.00020305
L11 63913U 25095Z 25354.15080338 .00020305 00000+0 74536-3 0 9997
L22 63913 43.0023 265.3873 0001703 275.2698 84.7959 15.27580388 35614



Live tracking and technical data element details for STARLINK-34070 (NORAD 63913). STARLINK-34070 can be tracked NOW for your location showing map with azimuth and elevation plus other details from your city location.







IsCatalogInMostPopularTable: catalog: 63913, numindb: 3
Update: records affected: 1



GetName: 63913 STARLINK-34070

Hit Count: updated at: Sun, 08 Feb 2026 17:16:08 GMT